Find WHDW 13-02

NORAD ID: 66413 Int'l Des: 2025-258 Owner: ZXW Country: CN Constellation: xingwang operational
LEOCIRCULAR

Aktuelle Ansicht

3D-Globus wird geladen...

Über WHDW 13-02

Beschreibung wird geladen...

Nächste Überflüge

Passes for default location (London). Set your location on the main map for personalized predictions.

Höhenverlauf

Loading altitude history...

Zweizeiliger Elementsatz

1 66413U 25258B 26146.36163886 -.00000080 00000-0 95730-4 0 9999
2 66413 50.0029 14.1514 0001063 61.4283 298.6696 13.29323288 26823
Epoch: 26. Mai 2026 • Age: 11 hours

Aktueller Status

Höhe 1161.3 km
Geschwindigkeit 7.27 km/s
Subsatellitenpunkt -37.12°S, 160.34°E
Startdatum 10. Nov. 2025
Alter 0.5 years
Typ other

Technische Details

Klassifizierung Payload
Masse 800.00 kg
Trockenmasse 800.00 kg
Gesamtmasse 800.00 kg
Länge 3.00 m
Durchmesser 1.00 m
Spannweite 10.00 m
Form Box + 2 Pan
Hersteller SECM
Bus-Typ Xingwang S
Phasenstatus In Orbit
Besitzer/Staat ZXW/CN

Most Searched